Flag for U.S.A. Weather past 2 weeks in Pasadena, Texas, U.S.A.

Now
59 °F

Light rain. Low clouds.


Feels Like: 58 °F
Forecast: 54 / 72 °F
Wind: 7 mph from East

Location: Houston / Ellington

Current Time: Jan 31, 2015 at 10:16:58 PM

Latest Report: Jan 31, 2015 at 8:50 PM


Visibility: 7 mi

Pressure: 30.05 "Hg

Humidity: 94%

Dew point: 57 °F

Location of PasadenaLocation

Historic Weather in Pasadena — Graph

°F

Pasadena temperature yesterday

Maximum temperature yesterday: 66 °F (at 12:50 AM)
Minimum temperature yesterday: 52 °F (at 7:50 AM)
Average temperature yesterday: 57 °F

Past Weeks' High & Low Weather Summary

 TemperatureHumidityPressure
High77 °F (Jan 27, 3:50 PM)100% (Jan 20, 12:50 AM)30.42 "Hg (Jan 20, 12:50 AM)
Low37 °F (Jan 24, 5:50 AM)22% (Jan 26, 3:50 AM)29.92 "Hg (Jan 20, 3:50 PM)
Average57 °F70%30.15 "Hg
* Reported Jan 16 8:50 PM — Jan 31 8:50 PM, Pasadena, Weather by CustomWeather, © 2014

Note: Actual official high and low records may vary slightly from our data, if they occured in-between our weather recording intervals... More about our weather records

Advertising

Pasadena weather history for previous 24 hours

 ConditionsComfort  
Time TempWeatherWind HumidityBarometerVisibility
8:50 PM
Jan 31
59 °FLight rain. Low clouds.7 mph94%30.05 "Hg7 mi
7:50 PM59 °FLight rain. Low clouds.10 mph94%30.05 "Hg7 mi
6:50 PM59 °FMostly cloudy.13 mph88%30.05 "Hg7 mi
5:50 PM59 °FMostly cloudy.12 mph88%30.04 "Hg7 mi
4:50 PM59 °FMostly cloudy.9 mph88%30.05 "Hg7 mi
3:50 PM59 °FMostly cloudy.9 mph82%30.06 "Hg7 mi
2:50 PM59 °FMostly cloudy.16 mph77%30.08 "Hg7 mi
1:50 PM61 °FMostly cloudy.16 mph68%30.10 "Hg7 mi
11:50 AM61 °FPartly sunny.15 mph68%30.18 "Hg10 mi
10:50 AM57 °FPartly sunny.10 mph72%30.22 "Hg10 mi
8:50 AM52 °FPartly sunny.9 mph82%30.22 "Hg10 mi
7:50 AM52 °FPartly sunny.8 mph72%30.22 "Hg10 mi
6:50 AM50 °FPartly cloudy.8 mph76%30.20 "Hg10 mi
5:50 AM50 °FPassing clouds.7 mph76%30.20 "Hg10 mi
2:50 AM52 °FPassing clouds.6 mph67%30.24 "Hg10 mi
1:50 AM52 °FPassing clouds.6 mph72%30.26 "Hg10 mi
12:50 AM52 °FPassing clouds.9 mph72%30.27 "Hg10 mi
11:50 PM
Jan 30
52 °FPassing clouds.8 mph67%30.29 "Hg10 mi
10:50 PM52 °FPassing clouds.3 mph67%30.32 "Hg10 mi
Weather by CustomWeather, © 2014

See weather overviewHow to use our weather pages